Location: Maiden
(35.5760°N, 81.2120°W)
Time: 11:01:06
(UTC-04:00)

Vanguard 1 Rocket - Visible Passes

Search period start: 04 August 2020 00:00
Search period end: 14 August 2020 00:00
Orbit: 654 x 4222 km, 34.3° (Epoch: 03 August)

Date Brightness Start Highest point End Pass type
(mag) Time Alt. Az. Time Alt. Az. Time Alt. Az.
07 Aug 10.2 05:19:46 10° S 05:24:24 14° SSE 05:28:04 10° SE visible
09 Aug 9.9 05:19:43 10° SSW 05:27:44 21° SSE 05:33:08 10° ESE visible
10 Aug 10.5 04:11:09 12° S 04:15:37 15° SSE 04:20:37 10° ESE visible
11 Aug 9.6 05:21:18 11° SSW 05:31:02 29° SSE 05:37:15 10° E visible
12 Aug 10.2 04:14:08 18° S 04:18:56 22° SSE 04:25:44 10° ESE visible
13 Aug 10.7 03:06:55 15° SSE 03:06:55 15° SSE 03:12:39 10° ESE visible
13 Aug 9.3 05:24:13 14° SW 05:34:15 38° SSE 05:41:00 10° E visible
